When you browse on this site, cookies collect data to enhance your experience and personalize the content and advertising you see.
Visit our Privacy Policy to learn more. By continuing to use the site, you agree to this use of cookies and data.
  • In Austria
  • List of Countries
  • For 7 days
  • Water Temperature
  • Weather Map
  • News
  • Weather Widgets
  • user-avatar
    Login

    Hourly Weather Dammam

    Today, 6 April, Monday

    Time Temperature Precipitation Wind Pressure Humidity
    00:00 +26°C° 0 mm 4 mps 760 mmHg 35%
    01:00 +26°C° 0 mm 4 mps 760 mmHg 34%
    02:00 +26°C° 0 mm 4 mps 759 mmHg 33%
    03:00 +26°C° 0 mm 4 mps 758 mmHg 32%
    04:00 +26°C° 0 mm 4 mps 759 mmHg 31%
    05:00 +26°C° 0 mm 3 mps 759 mmHg 30%
    06:00 +25°C° 0 mm 3 mps 760 mmHg 29%
    07:00 +27°C° 0 mm 4 mps 760 mmHg 26%
    08:00 +29°C° 0 mm 4 mps 760 mmHg 22%
    09:00 +32°C° 0 mm 4 mps 761 mmHg 17%
    10:00 +33°C° 0 mm 5 mps 760 mmHg 16%
    11:00 +34°C° 0 mm 5 mps 760 mmHg 15%
    12:00 +35°C° 0 mm 5 mps 760 mmHg 13%
    13:00 +35°C° 0 mm 5 mps 760 mmHg 14%
    14:00 +35°C° 0 mm 5 mps 759 mmHg 14%
    15:00 +35°C° 0 mm 5 mps 758 mmHg 14%
    16:00 +34°C° 0 mm 5 mps 758 mmHg 16%
    17:00 +32°C° 0 mm 4 mps 758 mmHg 18%
    18:00 +30°C° 0 mm 3 mps 758 mmHg 19%
    19:00 +29°C° 0 mm 2 mps 759 mmHg 19%
    20:00 +29°C° 0 mm 2 mps 759 mmHg 20%
    21:00 +28°C° 0 mm 1 mps 759 mmHg 20%
    22:00 +28°C° 0 mm 1 mps 759 mmHg 20%
    23:00 +28°C° 0 mm 1 mps 759 mmHg 19%

    Tomorrow, 7 April, Tuesday

    Time Temperature Precipitation Wind Pressure Humidity
    00:00 +26°C° 0 mm 0 mps 758 mmHg 19%
    01:00 +28°C° 0 mm 1 mps 758 mmHg 18%
    02:00 +28°C° 0 mm 2 mps 758 mmHg 18%
    03:00 +28°C° 0 mm 2 mps 757 mmHg 18%
    04:00 +28°C° 0 mm 2 mps 758 mmHg 18%
    05:00 +28°C° 0 mm 2 mps 758 mmHg 19%
    06:00 +28°C° 0 mm 1 mps 758 mmHg 20%
    07:00 +29°C° 0 mm 1 mps 758 mmHg 18%
    08:00 +31°C° 0 mm 1 mps 758 mmHg 16%
    09:00 +33°C° 0 mm 1 mps 758 mmHg 15%
    10:00 +34°C° 0 mm 1 mps 758 mmHg 14%
    11:00 +37°C° 0 mm 2 mps 758 mmHg 13%
    12:00 +38°C° 0 mm 3 mps 757 mmHg 12%
    13:00 +38°C° 0 mm 3 mps 757 mmHg 12%
    14:00 +39°C° 0 mm 3 mps 756 mmHg 12%
    15:00 +40°C° 0 mm 4 mps 755 mmHg 12%
    16:00 +39°C° 0 mm 5 mps 755 mmHg 15%
    17:00 +36°C° 0 mm 6 mps 754 mmHg 17%
    18:00 +34°C° 0 mm 7 mps 754 mmHg 20%
    19:00 +34°C° 0 mm 7 mps 754 mmHg 23%
    20:00 +33°C° 0 mm 7 mps 755 mmHg 26%
    21:00 +32°C° 0 mm 7 mps 755 mmHg 29%
    22:00 +30°C° 0 mm 6 mps 755 mmHg 31%
    23:00 +30°C° 0 mm 6 mps 755 mmHg 34%

    Day after tomorrow, 8 April, Wednesday

    Time Temperature Precipitation Wind Pressure Humidity
    00:00 +29°C° 0 mm 5 mps 755 mmHg 37%
    01:00 +29°C° 0 mm 5 mps 755 mmHg 36%
    02:00 +29°C° 0 mm 6 mps 754 mmHg 35%
    03:00 +29°C° 0 mm 6 mps 754 mmHg 35%
    04:00 +29°C° 0 mm 6 mps 754 mmHg 34%
    05:00 +29°C° 0 mm 6 mps 755 mmHg 34%
    06:00 +29°C° 0 mm 6 mps 755 mmHg 33%
    07:00 +32°C° 0 mm 6 mps 755 mmHg 29%
    08:00 +34°C° 0 mm 5 mps 755 mmHg 24%
    09:00 +35°C° 0 mm 5 mps 756 mmHg 20%
    10:00 +37°C° 0.1 mm 5 mps 755 mmHg 18%
    11:00 +40°C° 0.1 mm 5 mps 755 mmHg 16%
    12:00 +43°C° 0.1 mm 5 mps 755 mmHg 14%
    13:00 +44°C° 0 mm 6 mps 754 mmHg 14%
    14:00 +44°C° 0 mm 6 mps 753 mmHg 14%
    15:00 +44°C° 0 mm 6 mps 753 mmHg 14%
    16:00 +41°C° 0 mm 6 mps 753 mmHg 16%
    17:00 +40°C° 0 mm 6 mps 753 mmHg 18%
    18:00 +39°C° 0 mm 5 mps 752 mmHg 20%
    19:00 +38°C° 0 mm 6 mps 753 mmHg 23%
    20:00 +36°C° 0 mm 7 mps 753 mmHg 25%
    21:00 +35°C° 0 mm 7 mps 754 mmHg 28%
    22:00 +35°C° 0 mm 7 mps 754 mmHg 28%
    23:00 +34°C° 0 mm 7 mps 753 mmHg 28%

    9 April, Thursday

    Time Temperature Precipitation Wind Pressure Humidity
    00:00 +34°C° 0 mm 7 mps 753 mmHg 28%
    01:00 +33°C° 0 mm 7 mps 753 mmHg 30%
    02:00 +33°C° 0 mm 7 mps 753 mmHg 31%
    03:00 +32°C° 0 mm 6 mps 753 mmHg 32%
    04:00 +33°C° 0 mm 6 mps 753 mmHg 28%
    05:00 +33°C° 0 mm 5 mps 754 mmHg 23%
    06:00 +34°C° 0 mm 5 mps 754 mmHg 19%
    07:00 +35°C° 0 mm 4 mps 754 mmHg 19%
    08:00 +37°C° 0 mm 4 mps 755 mmHg 18%
    09:00 +38°C° 0 mm 4 mps 755 mmHg 17%
    10:00 +41°C° 0 mm 4 mps 754 mmHg 16%
    11:00 +42°C° 0 mm 4 mps 754 mmHg 14%
    12:00 +44°C° 0 mm 4 mps 753 mmHg 13%
    13:00 +43°C° 0 mm 5 mps 753 mmHg 13%
    14:00 +44°C° 0 mm 7 mps 752 mmHg 14%
    15:00 +44°C° 0 mm 8 mps 752 mmHg 14%
    16:00 +43°C° 0 mm 9 mps 752 mmHg 17%
    17:00 +40°C° 0 mm 9 mps 752 mmHg 20%
    18:00 +39°C° 0 mm 10 mps 752 mmHg 22%
    19:00 +38°C° 0 mm 10 mps 752 mmHg 25%
    20:00 +37°C° 0 mm 10 mps 752 mmHg 27%
    21:00 +36°C° 0 mm 11 mps 752 mmHg 29%
    22:00 +36°C° 0 mm 10 mps 752 mmHg 30%
    23:00 +34°C° 0 mm 10 mps 752 mmHg 31%

    10 April, Friday

    Time Temperature Precipitation Wind Pressure Humidity
    00:00 +34°C° 0 mm 9 mps 752 mmHg 33%
    01:00 +33°C° 0 mm 9 mps 752 mmHg 33%
    02:00 +33°C° 0 mm 9 mps 751 mmHg 32%
    03:00 +33°C° 0 mm 8 mps 751 mmHg 32%
    04:00 +33°C° 0 mm 7 mps 752 mmHg 32%
    05:00 +33°C° 0 mm 5 mps 752 mmHg 31%
    06:00 +32°C° 0 mm 4 mps 752 mmHg 31%
    07:00 +34°C° 0 mm 4 mps 753 mmHg 25%
    08:00 +36°C° 0 mm 4 mps 753 mmHg 19%
    09:00 +38°C° 0 mm 4 mps 753 mmHg 14%
    10:00 +41°C° 0 mm 5 mps 753 mmHg 12%
    11:00 +44°C° 0 mm 6 mps 753 mmHg 10%
    12:00 +46°C° 0 mm 7 mps 752 mmHg 8%
    13:00 +46°C° 0 mm 7 mps 752 mmHg 9%
    14:00 +46°C° 0 mm 7 mps 751 mmHg 10%
    15:00 +46°C° 0 mm 8 mps 750 mmHg 10%
    16:00 +44°C° 0 mm 8 mps 750 mmHg 12%
    17:00 +43°C° 0 mm 8 mps 750 mmHg 13%
    18:00 +41°C° 0 mm 8 mps 750 mmHg 15%
    19:00 +40°C° 0 mm 8 mps 751 mmHg 18%
    20:00 +39°C° 0 mm 7 mps 751 mmHg 20%
    21:00 +36°C° 0 mm 6 mps 752 mmHg 23%
    22:00 +36°C° 0 mm 7 mps 751 mmHg 25%
    23:00 +35°C° 0 mm 8 mps 751 mmHg 28%

    11 April, Saturday

    Time Temperature Precipitation Wind Pressure Humidity
    00:00 +34°C° 0 mm 8 mps 751 mmHg 30%
    01:00 +33°C° 0 mm 7 mps 751 mmHg 30%
    02:00 +33°C° 0 mm 6 mps 751 mmHg 31%
    03:00 +33°C° 0 mm 4 mps 751 mmHg 31%
    04:00 +33°C° 0 mm 4 mps 751 mmHg 25%
    05:00 +34°C° 0 mm 4 mps 751 mmHg 20%
    06:00 +34°C° 0 mm 4 mps 752 mmHg 15%
    07:00 +36°C° 0 mm 6 mps 752 mmHg 13%
    08:00 +38°C° 0 mm 7 mps 752 mmHg 12%
    09:00 +40°C° 0 mm 9 mps 753 mmHg 11%
    10:00 +43°C° 0 mm 9 mps 752 mmHg 10%
    11:00 +44°C° 0 mm 9 mps 752 mmHg 9%
    12:00 +47°C° 0 mm 10 mps 752 mmHg 8%
    13:00 +47°C° 0 mm 9 mps 751 mmHg 8%
    14:00 +47°C° 0 mm 9 mps 751 mmHg 8%
    15:00 +48°C° 0 mm 9 mps 750 mmHg 8%
    16:00 +45°C° 0 mm 9 mps 750 mmHg 10%
    17:00 +44°C° 0 mm 9 mps 750 mmHg 12%
    18:00 +43°C° 0 mm 8 mps 751 mmHg 14%
    19:00 +41°C° 0 mm 7 mps 751 mmHg 16%
    20:00 +39°C° 0 mm 5 mps 752 mmHg 19%
    21:00 +37°C° 0 mm 4 mps 752 mmHg 22%
    22:00 +36°C° 0 mm 4 mps 753 mmHg 21%
    23:00 +35°C° 0 mm 4 mps 753 mmHg 21%
    Show more